Weather History for Ouarzazate, Morocco

Change the Weather History Date:

Friday, January 10, 2014

  Actual Average Record
Temperature  
Mean Temperature 46 °F -  
Max Temperature 47 °F 64 °F - ()
Min Temperature 44 °F 37 °F - ()
Degree Days  
Heating Degree Days 20    
Moisture  
Dew Point 38 °F    
Average Humidity 72    
Maximum Humidity 87    
Minimum Humidity 38    
Precipitation  
Precipitation 0.24 in 0.02 in - ()
Sea Level Pressure  
Sea Level Pressure 30.04 in    
Wind  
Wind Speed 7 mph ()    
Max Wind Speed 15 mph    
Max Gust Speed 22 mph    
Visibility 5.8 miles    
Events Rain    
T = Trace of Precipitation, MM = Missing Value Source: Averaged Metar Reports

Daily Weather History Graph

Daily Weather History Graph

Search for Another Location

Airport:

Trip Planner

Search our weather history database for the weather conditions in past years. The results will help you decide how hot, cold, wet, or windy it might be!

Date:

Astronomy

Jan. 10, 2014 Rise Set
Actual Time 7:26 AM WET 5:43 PM WET
Civil Twilight 7:00 AM WET 6:10 PM WET
Nautical Twilight 6:30 AM WET 6:39 PM WET
Astronomical Twilight 6:01 AM WET 7:09 PM WET
Moon 1:33 PM WET (1/10) 2:27 AM WET (1/10)
Length of Visible Light 11h 09m
Length of Day
10h 17m
Waxing Gibbous, 73% of the Moon is Illuminated
Jan 10
Waxing Gibbous
Jan 16
Full
Jan 24
Last Quarter
Jan 30
New
Feb 6
First Quarter

Hourly Weather History & Observations

Time (WET) Temp. Windchill Dew Point Humidity Pressure Visibility Wind Dir Wind Speed Gust Speed Precip Events Conditions
12:00 AM 53.6 °F - 28.4 °F 38% 30.09 in 6.2 mi ENE 8.1 mph - N/A   Mostly Cloudy
1:00 AM 50.0 °F - 26.6 °F 40% 30.09 in 6.2 mi Variable 1.2 mph - N/A Rain Light Rain
2:00 AM 50.0 °F - 35.6 °F 58% 30.09 in 6.2 mi ENE 9.2 mph 21.9 mph N/A Rain Light Rain
3:00 AM 49 °F - 37 °F 53%  in 12 mi NNE 6.9 mph - -   Scattered Clouds
3:00 AM 48.2 °F - 37.4 °F 66% 30.06 in 6.2 mi NNE 6.9 mph - N/A Rain Light Rain
4:00 AM 48.2 °F - 39.2 °F 71% 30.06 in 6.2 mi North 4.6 mph - N/A Rain Light Rain
5:00 AM 46.4 °F 43.5 °F 41.0 °F 81% 30.06 in 6.2 mi East 5.8 mph - N/A Rain Light Rain
6:00 AM 45 °F - 39 °F 74%  in 12 mi ENE 8.1 mph - - Rain Light Rain
6:00 AM 44.6 °F 40.2 °F 39.2 °F 81% 30.06 in 6.2 mi ENE 8.1 mph - N/A Rain Light Rain
7:00 AM 44.6 °F 43.1 °F 39.2 °F 81% 30.06 in 6.2 mi Variable 3.5 mph - N/A Rain Light Rain
8:00 AM 44.6 °F 39.2 °F 37.4 °F 76% 30.06 in 6.2 mi ENE 10.4 mph - N/A   Mostly Cloudy
9:00 AM 44 °F - 39 °F 76%  in 3 mi ENE 8.1 mph - - Rain Light Rain Showers
9:00 AM 44.6 °F 40.2 °F 24.8 °F 46% 30.06 in 3.1 mi ENE 8.1 mph - N/A Rain Light Rain Showers
10:00 AM 44.6 °F 42.2 °F 39.2 °F 81% 30.09 in 3.1 mi ENE 4.6 mph - N/A   Mostly Cloudy
11:00 AM 44.6 °F - 41.0 °F 87% 30.09 in 3.1 mi Calm Calm - N/A Rain Light Rain
12:00 PM 45 °F - 41 °F 79%  in 3 mi NNE 4.6 mph - - Rain Light Rain
12:00 PM 44.6 °F 41.4 °F 41.0 °F 87% 30.06 in 3.1 mi NNE 5.8 mph - N/A   Mostly Cloudy
1:00 PM 44.6 °F 39.2 °F 39.2 °F 81% 30.04 in 3.1 mi NE 10.4 mph - N/A   Mostly Cloudy
2:00 PM 44.6 °F 37.8 °F 39.2 °F 81% 30.01 in 6.2 mi NE 15.0 mph - N/A   Mostly Cloudy
3:00 PM 46 °F - 39 °F 67%  in 6 mi NE 10.4 mph - -   Mostly Cloudy
3:00 PM 46.4 °F 41.1 °F 37.4 °F 71% 29.98 in 6.2 mi ENE 11.5 mph - N/A   Mostly Cloudy
4:00 PM 46.4 °F 41.1 °F 39.2 °F 76% 29.98 in 6.2 mi ENE 11.5 mph - N/A   Mostly Cloudy
5:00 PM 46.4 °F 41.5 °F 39.2 °F 76% 29.98 in 6.2 mi ENE 10.4 mph - N/A   Mostly Cloudy
6:00 PM 46 °F - 38 °F 67%  in 6 mi ENE 12.7 mph - -   Mostly Cloudy
6:00 PM 46.4 °F 40.7 °F 39.2 °F 76% 29.98 in 6.2 mi ENE 12.7 mph - N/A   Mostly Cloudy
7:00 PM 44.6 °F 38.8 °F 39.2 °F 81% 30.01 in 6.2 mi ENE 11.5 mph - N/A   Mostly Cloudy
8:00 PM 44.6 °F 38.4 °F 37.4 °F 76% 30.01 in 6.2 mi ENE 12.7 mph - N/A   Mostly Cloudy
9:00 PM 45 °F - 38 °F 69%  in 6 mi ENE 10.4 mph - -   Mostly Cloudy
9:00 PM 44.6 °F 39.2 °F 39.2 °F 81% 30.04 in 6.2 mi ENE 10.4 mph - N/A   Mostly Cloudy
10:00 PM 44.6 °F 40.2 °F 39.2 °F 81% 30.04 in 6.2 mi East 8.1 mph - N/A   Mostly Cloudy
11:00 PM 44.6 °F 40.7 °F 39.2 °F 81% 30.04 in 6.2 mi ENE 6.9 mph - N/A   Mostly Cloudy